Lid_Strength_Index
-1 -1 -0 -0 -0 -0 2 5 10 3 1 9 9 13 12 9 11 9 10 10 12 13 13 13 13 14 12 8 8 12 10 12 16 14 10 9 10 12 12 17 17 16 17 17
-0 -0 -0 -1 -0 -0 2 7 8 2 3 12 12 10 11 10 12 12 12 12 10 10 13 14 12 12 11 8 9 11 10 14 18 16 13 10 12 12 11 12 15 16 19 17
-0 -0 -0 -1 -0 -0 2 7 11 8 6 8 11 12 11 12 10 11 11 12 10 12 13 11 13 11 10 8 10 8 8 13 16 19 15 12 15 13 12 12 16 16 16 15
0 0 -0 -1 -0 0 2 6 10 8 12 11 10 10 11 12 12 11 11 13 12 13 15 14 14 11 10 10 10 9 10 15 13 13 12 12 12 13 12 13 13 16 14 14
1 0 0 0 1 0 4 9 9 8 9 9 10 10 12 12 12 11 13 14 12 12 14 13 15 13 13 13 11 12 13 15 14 15 12 12 13 12 12 12 12 13 13 13
1 1 1 1 1 1 6 5 4 7 9 10 11 12 12 12 10 10 10 12 12 12 12 10 10 10 9 9 13 15 16 16 15 18 13 14 17 13 13 12 11 12 14 12
2 1 1 1 1 2 4 5 5 9 13 10 11 11 11 11 10 11 10 9 11 10 8 8 8 9 9 10 10 10 15 17 17 19 18 22 14 9 10 11 11 10 10 10
2 1 1 1 1 2 4 3 6 9 12 11 11 10 10 10 9 9 10 10 8 7 8 12 14 20 15 13 13 12 12 15 18 19 20 17 13 11 12 13 13 9 10 9
2 1 1 1 1 2 3 4 3 8 12 12 9 10 10 12 11 11 10 8 7 6 10 13 17 20 19 20 18 12 12 13 16 18 21 22 13 10 8 9 16 8 8 9
2 1 1 1 1 2 3 4 3 6 11 9 8 11 11 9 10 12 12 10 9 7 12 14 16 16 13 17 18 16 14 15 16 17 18 15 11 9 8 17 15 8 8 8
2 2 1 1 1 2 3 4 3 6 10 9 7 7 10 10 10 12 12 10 10 10 13 15 18 19 16 16 13 14 16 17 17 16 18 19 9 10 13 10 7 9 7 7
2 2 1 1 2 1 2 5 3 3 8 9 6 6 5 6 6 9 9 10 11 10 14 18 18 19 19 15 17 11 15 13 14 14 15 10 9 10 7 8 8 10 8 6
2 2 1 1 3 2 2 4 4 6 9 8 8 9 6 5 5 5 10 10 9 10 10 14 14 17 15 17 16 13 10 8 12 13 11 10 9 10 10 11 10 9 8 6
2 2 2 2 3 1 1 4 5 6 8 13 10 5 7 6 6 6 7 8 8 9 8 11 12 16 11 15 13 13 11 10 12 12 10 10 9 9 9 11 10 10 8 7
3 2 3 2 2 1 4 6 5 5 8 10 9 8 7 7 7 7 7 8 10 11 10 11 13 13 13 13 11 12 10 11 12 14 10 10 9 8 8 10 11 10 9 10
3 2 3 2 2 3 7 11 7 6 6 9 12 8 7 8 7 8 9 9 8 8 10 12 11 10 12 15 14 10 8 7 7 9 8 9 9 9 8 10 11 10 9 9
2 2 3 2 2 4 8 9 5 3 4 9 11 12 9 7 8 8 8 7 8 9 10 10 13 11 9 12 14 10 8 7 7 7 8 10 10 12 10 10 11 11 11 11
2 2 1 2 2 3 6 4 2 2 5 6 12 13 11 7 9 10 8 10 9 9 10 10 12 10 9 13 11 9 7 7 7 8 8 9 11 11 11 11 11 12 13 13
2 1 2 5 5 8 8 3 2 3 6 10 11 13 17 7 10 9 9 9 12 10 12 12 10 12 13 11 9 8 7 8 8 9 10 10 11 11 11 11 11 12 13 12
2 5 9 12 8 3 3 6 8 8 8 8 10 10 14 10 11 11 12 11 12 14 13 11 12 13 10 9 8 7 7 7 7 9 11 11 11 11 11 11 11 11 12 12
8 10 9 7 4 7 11 11 11 12 12 10 11 12 13 10 12 12 11 14 12 15 14 14 13 15 12 9 9 8 6 6 6 6 8 8 9 11 11 12 11 11 12 12
6 5 4 5 8 10 11 13 12 12 13 13 14 13 12 11 10 12 12 13 13 16 13 14 16 14 11 10 10 8 6 6 6 7 8 8 9 10 11 11 11 12 13 13
4 5 7 8 13 16 14 15 13 16 12 12 12 15 12 11 10 12 12 14 16 12 18 18 15 12 11 10 10 7 6 7 7 8 8 9 10 10 11 13 13 13 14 14
7 9 16 14 17 12 12 12 13 10 11 12 14 14 13 12 12 12 15 13 13 17 19 17 14 11 11 11 10 9 9 10 10 11 12 12 12 13 12 12 13 13 14 14
10 10 17 13 12 11 11 12 11 10 10 11 12 11 11 13 14 12 14 17 18 15 15 14 11 11 11 11 10 10 11 11 12 12 13 13 13 14 14 14 14 14 15 16
11 10 12 12 12 13 14 13 11 8 9 8 11 12 13 14 12 13 15 15 16 14 12 11 10 11 11 11 11 11 11 12 12 13 13 13 13 14 15 15 15 15 15 16
10 12 11 12 10 11 8 9 10 8 10 12 12 15 13 13 14 13 12 13 12 11 11 10 10 11 11 11 11 11 12 13 13 13 14 14 14 14 15 16 16 15 15 15